Location: Arboyeti
(42.1122°N, 44.6017°E)
Time: 05:21:01
(UTC+00:00)

Cosmos 2333 Rocket - Pass Details

Date: 19 April 2021
Orbit: 838 x 864 km, 70.8° (Epoch: 09 May)

Event Time Altitude Azimuth Distance (km) Brightness Sun altitude
Rises 16:21:10 0° 338° (NNW) 3,451 6.1 -6.7°
Reaches altitude 10° 16:23:42 10° 343° (NNW) 2,509 5.3 -7.2°
Maximum altitude 16:29:23 57° 62° (ENE) 1,010 2.4 -8.2°
Drops below altitude 10° 16:34:59 10° 140° (SE) 2,480 4.1 -9.1°
Enters shadow 16:35:30 - 142° (SE) 2,667 4.3 -9.2°
